M I D A S
Marine Information and Data Acquisition System
Tripno 1499 of the Zeeleeuw from 2008-06-09 06:34:31 to 2008-06-09 14:33:54
Back to CruiseResearch ActivitiesStationsMapUnderway DataData graphs

EquipmentUnitsComments
TimeDGPSUTC
LatitudeDGPSDM.mWGS84
LongitudeDGPSDM.mWGS84
SpeedMeteo Stationm/sRelative wind speed
DirectionMeteo StationdegRelative wind direction
TemperatureMeteo Stationdeg CelciusAir temperature
PressureMeteo StationPaAtmospheric pressure
HumidityMeteo Station%Relative humidity
Missing or incorrect values are displayed as -999
Metereological data collected by the RV Zeeleeuw from 2008-06-09 06:34:32 to 2008-06-09 14:45:23
                                                                                    Next 1000 lines
Time Latitude Longitude Speed Direction Temperature Pressure Humidity
2008-06-09 06:34:42 51°13.624 2°56.047 -999 -999 -999 -999 -999
2008-06-09 06:34:47 51°13.624 2°56.045 -999 -999 -999 -999 -999
2008-06-09 06:34:52 51°13.625 2°56.043 -999 -999 -999 -999 -999
2008-06-09 06:34:57 51°13.626 2°56.04 -999 -999 -999 -999 -999
2008-06-09 06:35:02 51°13.627 2°56.037 -999 -999 -999 -999 -999
2008-06-09 06:35:07 51°13.628 2°56.034 -999 -999 -999 -999 -999
2008-06-09 06:35:12 51°13.629 2°56.031 -999 -999 -999 -999 -999
2008-06-09 06:35:17 51°13.63 2°56.028 -999 -999 -999 -999 -999
2008-06-09 06:35:22 51°13.632 2°56.024 -999 -999 -999 -999 -999
2008-06-09 06:35:27 51°13.633 2°56.02 -999 -999 -999 -999 -999
2008-06-09 06:35:32 51°13.635 2°56.016 -999 -999 -999 -999 -999
2008-06-09 06:35:37 51°13.636 2°56.011 -999 -999 -999 -999 -999
2008-06-09 06:35:42 51°13.638 2°56.007 -999 -999 -999 -999 -999
2008-06-09 06:35:47 51°13.639 2°56.002 -999 -999 -999 -999 -999
2008-06-09 06:35:52 51°13.641 2°55.997 -999 -999 -999 -999 -999
2008-06-09 06:35:57 51°13.643 2°55.992 -999 -999 -999 -999 -999
2008-06-09 06:36:02 51°13.644 2°55.987 -999 -999 -999 -999 -999
2008-06-09 06:36:07 51°13.646 2°55.982 -999 -999 -999 -999 -999
2008-06-09 06:36:12 51°13.648 2°55.977 -999 -999 -999 -999 -999
2008-06-09 06:36:17 51°13.649 2°55.971 -999 -999 -999 -999 -999
2008-06-09 06:36:22 51°13.651 2°55.966 -999 -999 -999 -999 -999
2008-06-09 06:36:27 51°13.653 2°55.96 -999 -999 -999 -999 -999
2008-06-09 06:36:32 51°13.655 2°55.954 -999 -999 -999 -999 -999
2008-06-09 06:36:37 51°13.657 2°55.949 -999 -999 -999 -999 -999
2008-06-09 06:36:42 51°13.659 2°55.943 -999 -999 -999 -999 -999
2008-06-09 06:36:47 51°13.661 2°55.937 -999 -999 -999 -999 -999
2008-06-09 06:36:52 51°13.663 2°55.931 -999 -999 -999 -999 -999
2008-06-09 06:36:57 51°13.665 2°55.925 -999 -999 -999 -999 -999
2008-06-09 06:37:02 51°13.667 2°55.919 -999 -999 -999 -999 -999
2008-06-09 06:37:07 51°13.669 2°55.914 -999 -999 -999 -999 -999
2008-06-09 06:37:12 51°13.671 2°55.908 -999 -999 -999 -999 -999
2008-06-09 06:37:17 51°13.674 2°55.902 -999 -999 -999 -999 -999
2008-06-09 06:37:22 51°13.676 2°55.896 -999 -999 -999 -999 -999
2008-06-09 06:37:27 51°13.678 2°55.89 -999 -999 -999 -999 -999
2008-06-09 06:37:32 51°13.681 2°55.885 -999 -999 -999 -999 -999
2008-06-09 06:37:37 51°13.683 2°55.879 -999 -999 -999 -999 -999
2008-06-09 06:37:42 51°13.686 2°55.874 -999 -999 -999 -999 -999
2008-06-09 06:37:47 51°13.688 2°55.868 -999 -999 -999 -999 -999
2008-06-09 06:37:52 51°13.691 2°55.862 -999 -999 -999 -999 -999
2008-06-09 06:37:57 51°13.694 2°55.856 -999 -999 -999 -999 -999
2008-06-09 06:38:02 51°13.697 2°55.85 -999 -999 -999 -999 -999
2008-06-09 06:38:07 51°13.7 2°55.844 -999 -999 -999 -999 -999
2008-06-09 06:38:12 51°13.702 2°55.838 -999 -999 -999 -999 -999
2008-06-09 06:38:17 51°13.704 2°55.832 -999 -999 -999 -999 -999
2008-06-09 06:38:22 51°13.707 2°55.827 -999 -999 -999 -999 -999
2008-06-09 06:38:27 51°13.708 2°55.824 -999 -999 -999 -999 -999
2008-06-09 06:38:32 51°13.71 2°55.821 -999 -999 -999 -999 -999
2008-06-09 06:38:37 51°13.711 2°55.819 -999 -999 -999 -999 -999
2008-06-09 06:38:42 51°13.712 2°55.817 -999 -999 -999 -999 -999
2008-06-09 06:38:47 51°13.713 2°55.816 -999 -999 -999 -999 -999
2008-06-09 06:38:52 51°13.713 2°55.814 -999 -999 -999 -999 -999
2008-06-09 06:38:57 51°13.714 2°55.812 -999 -999 -999 -999 -999
2008-06-09 06:39:02 51°13.715 2°55.809 -999 -999 -999 -999 -999
2008-06-09 06:39:07 51°13.716 2°55.807 -999 -999 -999 -999 -999
2008-06-09 06:39:12 51°13.717 2°55.804 -999 -999 -999 -999 -999
2008-06-09 06:39:17 51°13.718 2°55.8 -999 -999 -999 -999 -999
2008-06-09 06:39:22 51°13.719 2°55.796 -999 -999 -999 -999 -999
2008-06-09 06:39:27 51°13.72 2°55.791 -999 -999 -999 -999 -999
2008-06-09 06:39:32 51°13.722 2°55.785 -999 -999 -999 -999 -999
2008-06-09 06:39:37 51°13.723 2°55.779 -999 -999 -999 -999 -999
2008-06-09 06:39:42 51°13.724 2°55.773 -999 -999 -999 -999 -999
2008-06-09 06:39:47 51°13.725 2°55.768 -999 -999 -999 -999 -999
2008-06-09 06:39:52 51°13.725 2°55.763 -999 -999 -999 -999 -999
2008-06-09 06:39:57 51°13.726 2°55.758 -999 -999 -999 -999 -999
2008-06-09 06:40:02 51°13.726 2°55.755 -999 -999 -999 -999 -999
2008-06-09 06:40:07 51°13.726 2°55.753 -999 -999 -999 -999 -999
2008-06-09 06:40:12 51°13.726 2°55.753 -999 -999 -999 -999 -999
2008-06-09 06:40:17 51°13.726 2°55.753 -999 -999 -999 -999 -999
2008-06-09 06:40:22 51°13.727 2°55.753 -999 -999 -999 -999 -999
2008-06-09 06:40:27 51°13.726 2°55.753 -999 -999 -999 -999 -999
2008-06-09 06:40:32 51°13.726 2°55.752 -999 -999 -999 -999 -999
2008-06-09 06:40:37 51°13.726 2°55.751 -999 -999 -999 -999 -999
2008-06-09 06:40:42 51°13.726 2°55.749 -999 -999 -999 -999 -999
2008-06-09 06:40:47 51°13.725 2°55.747 -999 -999 -999 -999 -999
2008-06-09 06:40:52 51°13.724 2°55.744 -999 -999 -999 -999 -999
2008-06-09 06:40:57 51°13.723 2°55.742 -999 -999 -999 -999 -999
2008-06-09 06:41:02 51°13.722 2°55.74 -999 -999 -999 -999 -999
2008-06-09 06:41:07 51°13.722 2°55.738 -999 -999 -999 -999 -999
2008-06-09 06:41:12 51°13.721 2°55.737 -999 -999 -999 -999 -999
2008-06-09 06:41:17 51°13.721 2°55.737 -999 -999 -999 -999 -999
2008-06-09 06:41:22 51°13.722 2°55.737 -999 -999 -999 -999 -999
2008-06-09 06:41:27 51°13.722 2°55.738 -999 -999 -999 -999 -999
2008-06-09 06:41:32 51°13.722 2°55.738 -999 -999 -999 -999 -999
2008-06-09 06:41:37 51°13.721 2°55.738 -999 -999 -999 -999 -999
2008-06-09 06:41:42 51°13.721 2°55.737 -999 -999 -999 -999 -999
2008-06-09 06:41:47 51°13.719 2°55.736 -999 -999 -999 -999 -999
2008-06-09 06:41:52 51°13.718 2°55.735 -999 -999 -999 -999 -999
2008-06-09 06:41:57 51°13.716 2°55.734 -999 -999 -999 -999 -999
2008-06-09 06:42:02 51°13.715 2°55.733 -999 -999 -999 -999 -999
2008-06-09 06:42:07 51°13.713 2°55.732 -999 -999 -999 -999 -999
2008-06-09 06:42:12 51°13.711 2°55.731 -999 -999 -999 -999 -999
2008-06-09 06:42:17 51°13.71 2°55.73 -999 -999 -999 -999 -999
2008-06-09 06:42:22 51°13.708 2°55.729 -999 -999 -999 -999 -999
2008-06-09 06:42:27 51°13.707 2°55.728 -999 -999 -999 -999 -999
2008-06-09 06:42:32 51°13.706 2°55.728 -999 -999 -999 -999 -999
2008-06-09 06:42:37 51°13.704 2°55.727 -999 -999 -999 -999 -999
2008-06-09 06:42:42 51°13.704 2°55.727 -999 -999 -999 -999 -999
2008-06-09 06:42:47 51°13.703 2°55.727 -999 -999 -999 -999 -999
2008-06-09 06:42:52 51°13.702 2°55.727 -999 -999 -999 -999 -999
2008-06-09 06:42:57 51°13.702 2°55.727 -999 -999 -999 -999 -999
2008-06-09 06:43:02 51°13.702 2°55.727 -999 -999 -999 -999 -999
2008-06-09 06:43:07 51°13.702 2°55.727 -999 -999 -999 -999 -999
2008-06-09 06:43:12 51°13.702 2°55.727 -999 -999 -999 -999 -999
2008-06-09 06:43:17 51°13.702 2°55.728 -999 -999 -999 -999 -999
2008-06-09 06:43:22 51°13.703 2°55.728 -999 -999 -999 -999 -999
2008-06-09 06:43:27 51°13.703 2°55.728 -999 -999 -999 -999 -999
2008-06-09 06:43:32 51°13.704 2°55.728 -999 -999 -999 -999 -999
2008-06-09 06:43:37 51°13.704 2°55.728 -999 -999 -999 -999 -999
2008-06-09 06:43:42 51°13.705 2°55.728 -999 -999 -999 -999 -999
2008-06-09 06:43:47 51°13.706 2°55.728 -999 -999 -999 -999 -999
2008-06-09 06:43:52 51°13.706 2°55.727 -999 -999 -999 -999 -999
2008-06-09 06:43:57 51°13.707 2°55.727 -999 -999 -999 -999 -999
2008-06-09 06:44:02 51°13.708 2°55.727 -999 -999 -999 -999 -999
2008-06-09 06:44:07 51°13.709 2°55.727 -999 -999 -999 -999 -999
2008-06-09 06:44:12 51°13.71 2°55.727 -999 -999 -999 -999 -999
2008-06-09 06:44:17 51°13.71 2°55.727 -999 -999 -999 -999 -999
2008-06-09 06:44:22 51°13.711 2°55.726 -999 -999 -999 -999 -999
2008-06-09 06:44:27 51°13.712 2°55.726 -999 -999 -999 -999 -999
2008-06-09 06:44:32 51°13.713 2°55.726 -999 -999 -999 -999 -999
2008-06-09 06:44:37 51°13.714 2°55.725 -999 -999 -999 -999 -999
2008-06-09 06:44:42 51°13.715 2°55.725 -999 -999 -999 -999 -999
2008-06-09 06:44:47 51°13.715 2°55.725 -999 -999 -999 -999 -999
2008-06-09 06:44:52 51°13.716 2°55.724 -999 -999 -999 -999 -999
2008-06-09 06:44:57 51°13.717 2°55.724 -999 -999 -999 -999 -999
2008-06-09 06:45:02 51°13.718 2°55.723 -999 -999 -999 -999 -999
2008-06-09 06:45:07 51°13.719 2°55.722 -999 -999 -999 -999 -999
2008-06-09 06:45:12 51°13.719 2°55.722 -999 -999 -999 -999 -999
2008-06-09 06:45:17 51°13.72 2°55.721 -999 -999 -999 -999 -999
2008-06-09 06:45:22 51°13.721 2°55.721 -999 -999 -999 -999 -999
2008-06-09 06:45:27 51°13.722 2°55.72 -999 -999 -999 -999 -999
2008-06-09 06:45:32 51°13.723 2°55.719 -999 -999 -999 -999 -999
2008-06-09 06:45:37 51°13.723 2°55.718 -999 -999 -999 -999 -999
2008-06-09 06:45:42 51°13.724 2°55.718 -999 -999 -999 -999 -999
2008-06-09 06:45:47 51°13.725 2°55.717 -999 -999 -999 -999 -999
2008-06-09 06:45:52 51°13.725 2°55.716 -999 -999 -999 -999 -999
2008-06-09 06:45:57 51°13.726 2°55.715 -999 -999 -999 -999 -999
2008-06-09 06:46:02 51°13.727 2°55.714 -999 -999 -999 -999 -999
2008-06-09 06:46:07 51°13.727 2°55.713 -999 -999 -999 -999 -999
2008-06-09 06:46:12 51°13.728 2°55.713 -999 -999 -999 -999 -999
2008-06-09 06:46:17 51°13.728 2°55.712 -999 -999 -999 -999 -999
2008-06-09 06:46:22 51°13.729 2°55.711 -999 -999 -999 -999 -999
2008-06-09 06:46:27 51°13.73 2°55.71 -999 -999 -999 -999 -999
2008-06-09 06:46:32 51°13.73 2°55.709 -999 -999 -999 -999 -999
2008-06-09 06:46:37 51°13.73 2°55.709 -999 -999 -999 -999 -999
2008-06-09 06:46:42 51°13.731 2°55.708 -999 -999 -999 -999 -999
2008-06-09 06:46:47 51°13.731 2°55.707 -999 -999 -999 -999 -999
2008-06-09 06:46:52 51°13.732 2°55.707 -999 -999 -999 -999 -999
2008-06-09 06:46:57 51°13.733 2°55.706 -999 -999 -999 -999 -999
2008-06-09 06:47:02 51°13.733 2°55.705 -999 -999 -999 -999 -999
2008-06-09 06:47:07 51°13.734 2°55.704 -999 -999 -999 -999 -999
2008-06-09 06:47:12 51°13.735 2°55.703 -999 -999 -999 -999 -999
2008-06-09 06:47:17 51°13.736 2°55.702 -999 -999 -999 -999 -999
2008-06-09 06:47:22 51°13.737 2°55.701 -999 -999 -999 -999 -999
2008-06-09 06:47:27 51°13.739 2°55.7 -999 -999 -999 -999 -999
2008-06-09 06:47:32 51°13.74 2°55.699 -999 -999 -999 -999 -999
2008-06-09 06:47:37 51°13.742 2°55.697 -999 -999 -999 -999 -999
2008-06-09 06:47:42 51°13.744 2°55.696 -999 -999 -999 -999 -999
2008-06-09 06:47:47 51°13.746 2°55.695 -999 -999 -999 -999 -999
2008-06-09 06:47:52 51°13.748 2°55.693 -999 -999 -999 -999 -999
2008-06-09 06:47:57 51°13.75 2°55.691 -999 -999 -999 -999 -999
2008-06-09 06:48:02 51°13.754 2°55.689 -999 -999 -999 -999 -999
2008-06-09 06:48:07 51°13.757 2°55.686 -999 -999 -999 -999 -999
2008-06-09 06:48:12 51°13.762 2°55.683 -999 -999 -999 -999 -999
2008-06-09 06:48:17 51°13.767 2°55.68 -999 -999 -999 -999 -999
2008-06-09 06:48:22 51°13.774 2°55.676 -999 -999 -999 -999 -999
2008-06-09 06:48:27 51°13.781 2°55.671 -999 -999 -999 -999 -999
2008-06-09 06:48:32 51°13.789 2°55.666 -999 -999 -999 -999 -999
2008-06-09 06:48:37 51°13.798 2°55.661 -999 -999 -999 -999 -999
2008-06-09 06:48:42 51°13.807 2°55.655 -999 -999 -999 -999 -999
2008-06-09 06:48:47 51°13.816 2°55.65 -999 -999 -999 -999 -999
2008-06-09 06:48:52 51°13.824 2°55.644 -999 -999 -999 -999 -999
2008-06-09 06:48:57 51°13.833 2°55.639 -999 -999 -999 -999 -999
2008-06-09 06:49:02 51°13.841 2°55.634 -999 -999 -999 -999 -999
2008-06-09 06:49:07 51°13.849 2°55.63 -999 -999 -999 -999 -999
2008-06-09 06:49:12 51°13.857 2°55.625 -999 -999 -999 -999 -999
2008-06-09 06:49:17 51°13.864 2°55.621 -999 -999 -999 -999 -999
2008-06-09 06:49:22 51°13.872 2°55.617 -999 -999 -999 -999 -999
2008-06-09 06:49:27 51°13.879 2°55.613 -999 -999 -999 -999 -999
2008-06-09 06:49:32 51°13.886 2°55.609 -999 -999 -999 -999 -999
2008-06-09 06:49:37 51°13.893 2°55.605 -999 -999 -999 -999 -999
2008-06-09 06:49:42 51°13.9 2°55.601 -999 -999 -999 -999 -999
2008-06-09 06:49:47 51°13.907 2°55.596 -999 -999 -999 -999 -999
2008-06-09 06:49:52 51°13.913 2°55.592 -999 -999 -999 -999 -999
2008-06-09 06:49:57 51°13.92 2°55.587 -999 -999 -999 -999 -999
2008-06-09 06:50:02 51°13.926 2°55.582 -999 -999 -999 -999 -999
2008-06-09 06:50:07 51°13.933 2°55.578 -999 -999 -999 -999 -999
2008-06-09 06:50:12 51°13.939 2°55.574 -999 -999 -999 -999 -999
2008-06-09 06:50:17 51°13.946 2°55.569 -999 -999 -999 -999 -999
2008-06-09 06:50:22 51°13.952 2°55.565 -999 -999 -999 -999 -999
2008-06-09 06:50:27 51°13.958 2°55.56 -999 -999 -999 -999 -999
2008-06-09 06:50:32 51°13.964 2°55.555 -999 -999 -999 -999 -999
2008-06-09 06:50:37 51°13.97 2°55.55 -999 -999 -999 -999 -999
2008-06-09 06:50:42 51°13.976 2°55.545 -999 -999 -999 -999 -999
2008-06-09 06:50:47 51°13.983 2°55.539 -999 -999 -999 -999 -999
2008-06-09 06:50:52 51°13.989 2°55.533 -999 -999 -999 -999 -999
2008-06-09 06:50:57 51°13.995 2°55.528 -999 -999 -999 -999 -999
2008-06-09 06:51:02 51°14.002 2°55.521 -999 -999 -999 -999 -999
2008-06-09 06:51:07 51°14.01 2°55.515 -999 -999 -999 -999 -999
2008-06-09 06:51:12 51°14.018 2°55.508 -999 -999 -999 -999 -999
2008-06-09 06:51:17 51°14.026 2°55.5 -999 -999 -999 -999 -999
2008-06-09 06:51:22 51°14.034 2°55.493 -999 -999 -999 -999 -999
2008-06-09 06:51:27 51°14.043 2°55.485 -999 -999 -999 -999 -999
2008-06-09 06:51:32 51°14.052 2°55.477 -999 -999 -999 -999 -999
2008-06-09 06:51:37 51°14.062 2°55.469 -999 -999 -999 -999 -999
2008-06-09 06:51:42 51°14.071 2°55.461 -999 -999 -999 -999 -999
2008-06-09 06:51:47 51°14.081 2°55.454 -999 -999 -999 -999 -999
2008-06-09 06:51:52 51°14.091 2°55.446 -999 -999 -999 -999 -999
2008-06-09 06:51:57 51°14.102 2°55.437 -999 -999 -999 -999 -999
2008-06-09 06:52:02 51°14.112 2°55.429 -999 -999 -999 -999 -999
2008-06-09 06:52:07 51°14.122 2°55.421 -999 -999 -999 -999 -999
2008-06-09 06:52:12 51°14.132 2°55.412 -999 -999 -999 -999 -999
2008-06-09 06:52:17 51°14.143 2°55.403 -999 -999 -999 -999 -999
2008-06-09 06:52:22 51°14.153 2°55.394 -999 -999 -999 -999 -999
2008-06-09 06:52:27 51°14.164 2°55.384 -999 -999 -999 -999 -999
2008-06-09 06:52:32 51°14.175 2°55.374 -999 -999 -999 -999 -999
2008-06-09 06:52:37 51°14.185 2°55.363 -999 -999 -999 -999 -999
2008-06-09 06:52:42 51°14.196 2°55.352 -999 -999 -999 -999 -999
2008-06-09 06:52:47 51°14.206 2°55.34 -999 -999 -999 -999 -999
2008-06-09 06:52:52 51°14.217 2°55.326 -999 -999 -999 -999 -999
2008-06-09 06:52:57 51°14.228 2°55.312 -999 -999 -999 -999 -999
2008-06-09 06:53:02 51°14.238 2°55.298 -999 -999 -999 -999 -999
2008-06-09 06:53:07 51°14.249 2°55.282 -999 -999 -999 -999 -999
2008-06-09 06:53:12 51°14.259 2°55.265 -999 -999 -999 -999 -999
2008-06-09 06:53:17 51°14.269 2°55.248 -999 -999 -999 -999 -999
2008-06-09 06:53:22 51°14.279 2°55.231 -999 -999 -999 -999 -999
2008-06-09 06:53:27 51°14.289 2°55.213 -999 -999 -999 -999 -999
2008-06-09 06:53:32 51°14.298 2°55.194 -999 -999 -999 -999 -999
2008-06-09 06:53:37 51°14.307 2°55.175 -999 -999 -999 -999 -999
2008-06-09 06:53:42 51°14.317 2°55.155 -999 -999 -999 -999 -999
2008-06-09 06:53:47 51°14.326 2°55.136 -999 -999 -999 -999 -999
2008-06-09 06:53:52 51°14.336 2°55.116 -999 -999 -999 -999 -999
2008-06-09 06:53:57 51°14.345 2°55.096 -999 -999 -999 -999 -999
2008-06-09 06:54:02 51°14.354 2°55.076 -999 -999 -999 -999 -999
2008-06-09 06:54:07 51°14.364 2°55.056 -999 -999 -999 -999 -999
2008-06-09 06:54:12 51°14.374 2°55.036 -999 -999 -999 -999 -999
2008-06-09 06:54:17 51°14.384 2°55.016 -999 -999 -999 -999 -999
2008-06-09 06:54:22 51°14.394 2°54.995 -999 -999 -999 -999 -999
2008-06-09 06:54:27 51°14.404 2°54.974 -999 -999 -999 -999 -999
2008-06-09 06:54:32 51°14.415 2°54.953 -999 -999 -999 -999 -999
2008-06-09 06:54:37 51°14.426 2°54.932 -999 -999 -999 -999 -999
2008-06-09 06:54:42 51°14.437 2°54.911 -999 -999 -999 -999 -999
2008-06-09 06:54:47 51°14.448 2°54.89 -999 -999 -999 -999 -999
2008-06-09 06:54:52 51°14.459 2°54.869 -999 -999 -999 -999 -999
2008-06-09 06:54:57 51°14.47 2°54.849 -999 -999 -999 -999 -999
2008-06-09 06:55:02 51°14.48 2°54.827 -999 -999 -999 -999 -999
2008-06-09 06:55:07 51°14.49 2°54.805 -999 -999 -999 -999 -999
2008-06-09 06:55:12 51°14.499 2°54.783 -999 -999 -999 -999 -999
2008-06-09 06:55:17 51°14.508 2°54.759 -999 -999 -999 -999 -999
2008-06-09 06:55:22 51°14.516 2°54.736 -999 -999 -999 -999 -999
2008-06-09 06:55:27 51°14.523 2°54.712 -999 -999 -999 -999 -999
2008-06-09 06:55:32 51°14.532 2°54.689 -999 -999 -999 -999 -999
2008-06-09 06:55:37 51°14.539 2°54.665 -999 -999 -999 -999 -999
2008-06-09 06:55:42 51°14.547 2°54.642 -999 -999 -999 -999 -999
2008-06-09 06:55:47 51°14.554 2°54.618 -999 -999 -999 -999 -999
2008-06-09 06:55:52 51°14.561 2°54.594 -999 -999 -999 -999 -999
2008-06-09 06:55:57 51°14.568 2°54.57 -999 -999 -999 -999 -999
2008-06-09 06:56:02 51°14.575 2°54.546 -999 -999 -999 -999 -999
2008-06-09 06:56:07 51°14.582 2°54.523 -999 -999 -999 -999 -999
2008-06-09 06:56:12 51°14.588 2°54.499 -999 -999 -999 -999 -999
2008-06-09 06:56:17 51°14.595 2°54.474 -999 -999 -999 -999 -999
2008-06-09 06:56:22 51°14.602 2°54.451 -999 -999 -999 -999 -999
2008-06-09 06:56:27 51°14.609 2°54.426 -999 -999 -999 -999 -999
2008-06-09 06:56:32 51°14.616 2°54.402 -999 -999 -999 -999 -999
2008-06-09 06:56:37 51°14.623 2°54.378 -999 -999 -999 -999 -999
2008-06-09 06:56:42 51°14.63 2°54.355 -999 -999 -999 -999 -999
2008-06-09 06:56:47 51°14.637 2°54.331 -999 -999 -999 -999 -999
2008-06-09 06:56:52 51°14.645 2°54.307 -999 -999 -999 -999 -999
2008-06-09 06:56:57 51°14.652 2°54.284 -999 -999 -999 -999 -999
2008-06-09 06:57:02 51°14.659 2°54.26 -999 -999 -999 -999 -999
2008-06-09 06:57:07 51°14.667 2°54.236 -999 -999 -999 -999 -999
2008-06-09 06:57:12 51°14.675 2°54.212 -999 -999 -999 -999 -999
2008-06-09 06:57:17 51°14.682 2°54.189 -999 -999 -999 -999 -999
2008-06-09 06:57:22 51°14.69 2°54.165 -999 -999 -999 -999 -999
2008-06-09 06:57:27 51°14.698 2°54.142 -999 -999 -999 -999 -999
2008-06-09 06:57:32 51°14.705 2°54.118 -999 -999 -999 -999 -999
2008-06-09 06:57:37 51°14.713 2°54.094 -999 -999 -999 -999 -999
2008-06-09 06:57:42 51°14.721 2°54.071 -999 -999 -999 -999 -999
2008-06-09 06:57:47 51°14.728 2°54.047 -999 -999 -999 -999 -999
2008-06-09 06:57:52 51°14.736 2°54.024 -999 -999 -999 -999 -999
2008-06-09 06:57:57 51°14.744 2°54 -999 -999 -999 -999 -999
2008-06-09 06:58:02 51°14.752 2°53.977 -999 -999 -999 -999 -999
2008-06-09 06:58:07 51°14.76 2°53.954 -999 -999 -999 -999 -999
2008-06-09 06:58:12 51°14.768 2°53.93 -999 -999 -999 -999 -999
2008-06-09 06:58:17 51°14.775 2°53.907 -999 -999 -999 -999 -999
2008-06-09 06:58:22 51°14.783 2°53.883 -999 -999 -999 -999 -999
2008-06-09 06:58:27 51°14.79 2°53.859 -999 -999 -999 -999 -999
2008-06-09 06:58:32 51°14.798 2°53.835 -999 -999 -999 -999 -999
2008-06-09 06:58:37 51°14.805 2°53.812 -999 -999 -999 -999 -999
2008-06-09 06:58:42 51°14.812 2°53.788 -999 -999 -999 -999 -999
2008-06-09 06:58:47 51°14.82 2°53.764 -999 -999 -999 -999 -999
2008-06-09 06:58:52 51°14.827 2°53.74 -999 -999 -999 -999 -999
2008-06-09 06:58:57 51°14.835 2°53.717 -999 -999 -999 -999 -999
2008-06-09 06:59:02 51°14.842 2°53.693 -999 -999 -999 -999 -999
2008-06-09 06:59:07 51°14.849 2°53.669 -999 -999 -999 -999 -999
2008-06-09 06:59:12 51°14.857 2°53.645 -999 -999 -999 -999 -999
2008-06-09 06:59:17 51°14.864 2°53.621 -999 -999 -999 -999 -999
2008-06-09 06:59:22 51°14.872 2°53.597 -999 -999 -999 -999 -999
2008-06-09 06:59:27 51°14.879 2°53.574 -999 -999 -999 -999 -999
2008-06-09 06:59:32 51°14.887 2°53.55 -999 -999 -999 -999 -999
2008-06-09 06:59:37 51°14.894 2°53.526 -999 -999 -999 -999 -999
2008-06-09 06:59:42 51°14.902 2°53.502 -999 -999 -999 -999 -999
2008-06-09 06:59:47 51°14.91 2°53.478 -999 -999 -999 -999 -999
2008-06-09 06:59:52 51°14.917 2°53.454 -999 -999 -999 -999 -999
2008-06-09 06:59:57 51°14.925 2°53.43 -999 -999 -999 -999 -999
2008-06-09 07:00:02 51°14.932 2°53.406 -999 -999 -999 -999 -999
2008-06-09 07:00:07 51°14.94 2°53.383 -999 -999 -999 -999 -999
2008-06-09 07:00:12 51°14.948 2°53.359 -999 -999 -999 -999 -999
2008-06-09 07:00:17 51°14.955 2°53.335 -999 -999 -999 -999 -999
2008-06-09 07:00:22 51°14.963 2°53.311 -999 -999 -999 -999 -999
2008-06-09 07:00:27 51°14.971 2°53.287 -999 -999 -999 -999 -999
2008-06-09 07:00:32 51°14.978 2°53.263 -999 -999 -999 -999 -999
2008-06-09 07:00:37 51°14.986 2°53.239 -999 -999 -999 -999 -999
2008-06-09 07:00:42 51°14.993 2°53.214 -999 -999 -999 -999 -999
2008-06-09 07:00:47 51°15 2°53.19 -999 -999 -999 -999 -999
2008-06-09 07:00:52 51°15.007 2°53.166 -999 -999 -999 -999 -999
2008-06-09 07:00:57 51°15.014 2°53.141 -999 -999 -999 -999 -999
2008-06-09 07:01:02 51°15.021 2°53.117 -999 -999 -999 -999 -999
2008-06-09 07:01:07 51°15.027 2°53.092 -999 -999 -999 -999 -999
2008-06-09 07:01:12 51°15.033 2°53.067 -999 -999 -999 -999 -999
2008-06-09 07:01:17 51°15.039 2°53.042 -999 -999 -999 -999 -999
2008-06-09 07:01:22 51°15.044 2°53.017 -999 -999 -999 -999 -999
2008-06-09 07:01:27 51°15.049 2°52.992 -999 -999 -999 -999 -999
2008-06-09 07:01:32 51°15.055 2°52.966 -999 -999 -999 -999 -999
2008-06-09 07:01:37 51°15.06 2°52.941 -999 -999 -999 -999 -999
2008-06-09 07:01:42 51°15.065 2°52.916 -999 -999 -999 -999 -999
2008-06-09 07:01:47 51°15.069 2°52.89 -999 -999 -999 -999 -999
2008-06-09 07:01:52 51°15.072 2°52.864 -999 -999 -999 -999 -999
2008-06-09 07:01:57 51°15.075 2°52.838 -999 -999 -999 -999 -999
2008-06-09 07:02:02 51°15.077 2°52.811 -999 -999 -999 -999 -999
2008-06-09 07:02:07 51°15.079 2°52.785 -999 -999 -999 -999 -999
2008-06-09 07:02:12 51°15.079 2°52.758 -999 -999 -999 -999 -999
2008-06-09 07:02:17 51°15.08 2°52.732 -999 -999 -999 -999 -999
2008-06-09 07:02:22 51°15.08 2°52.705 -999 -999 -999 -999 -999
2008-06-09 07:02:27 51°15.079 2°52.678 -999 -999 -999 -999 -999
2008-06-09 07:02:32 51°15.078 2°52.652 -999 -999 -999 -999 -999
2008-06-09 07:02:37 51°15.077 2°52.625 -999 -999 -999 -999 -999
2008-06-09 07:02:42 51°15.075 2°52.599 -999 -999 -999 -999 -999
2008-06-09 07:02:47 51°15.074 2°52.572 -999 -999 -999 -999 -999
2008-06-09 07:02:52 51°15.072 2°52.546 -999 -999 -999 -999 -999
2008-06-09 07:02:57 51°15.07 2°52.519 -999 -999 -999 -999 -999
2008-06-09 07:03:02 51°15.068 2°52.493 -999 -999 -999 -999 -999
2008-06-09 07:03:07 51°15.066 2°52.467 -999 -999 -999 -999 -999
2008-06-09 07:03:12 51°15.064 2°52.44 -999 -999 -999 -999 -999
2008-06-09 07:03:17 51°15.062 2°52.414 -999 -999 -999 -999 -999
2008-06-09 07:03:22 51°15.06 2°52.387 -999 -999 -999 -999 -999
2008-06-09 07:03:27 51°15.059 2°52.361 -999 -999 -999 -999 -999
2008-06-09 07:03:32 51°15.057 2°52.335 -999 -999 -999 -999 -999
2008-06-09 07:03:37 51°15.056 2°52.308 -999 -999 -999 -999 -999
2008-06-09 07:03:42 51°15.054 2°52.282 -999 -999 -999 -999 -999
2008-06-09 07:03:47 51°15.053 2°52.255 -999 -999 -999 -999 -999
2008-06-09 07:03:52 51°15.052 2°52.229 -999 -999 -999 -999 -999
2008-06-09 07:03:57 51°15.051 2°52.202 -999 -999 -999 -999 -999
2008-06-09 07:04:02 51°15.049 2°52.175 -999 -999 -999 -999 -999
2008-06-09 07:04:07 51°15.048 2°52.149 -999 -999 -999 -999 -999
2008-06-09 07:04:12 51°15.047 2°52.122 -999 -999 -999 -999 -999
2008-06-09 07:04:17 51°15.047 2°52.095 -999 -999 -999 -999 -999
2008-06-09 07:04:22 51°15.045 2°52.069 -999 -999 -999 -999 -999
2008-06-09 07:04:27 51°15.044 2°52.042 -999 -999 -999 -999 -999
2008-06-09 07:04:32 51°15.043 2°52.016 -999 -999 -999 -999 -999
2008-06-09 07:04:37 51°15.042 2°51.989 -999 -999 -999 -999 -999
2008-06-09 07:04:42 51°15.041 2°51.962 -999 -999 -999 -999 -999
2008-06-09 07:04:47 51°15.041 2°51.936 -999 -999 -999 -999 -999
2008-06-09 07:04:52 51°15.04 2°51.909 -999 -999 -999 -999 -999
2008-06-09 07:04:57 51°15.039 2°51.882 -999 -999 -999 -999 -999
2008-06-09 07:05:02 51°15.038 2°51.856 -999 -999 -999 -999 -999
2008-06-09 07:05:07 51°15.037 2°51.829 -999 -999 -999 -999 -999
2008-06-09 07:05:12 51°15.036 2°51.803 -999 -999 -999 -999 -999
2008-06-09 07:05:17 51°15.035 2°51.776 -999 -999 -999 -999 -999
2008-06-09 07:05:22 51°15.035 2°51.749 -999 -999 -999 -999 -999
2008-06-09 07:05:27 51°15.034 2°51.723 -999 -999 -999 -999 -999
2008-06-09 07:05:32 51°15.033 2°51.696 -999 -999 -999 -999 -999
2008-06-09 07:05:37 51°15.033 2°51.669 -999 -999 -999 -999 -999
2008-06-09 07:05:42 51°15.033 2°51.642 -999 -999 -999 -999 -999
2008-06-09 07:05:47 51°15.033 2°51.615 -999 -999 -999 -999 -999
2008-06-09 07:05:52 51°15.033 2°51.589 -999 -999 -999 -999 -999
2008-06-09 07:05:57 51°15.032 2°51.562 -999 -999 -999 -999 -999
2008-06-09 07:06:02 51°15.032 2°51.535 -999 -999 -999 -999 -999
2008-06-09 07:06:07 51°15.031 2°51.508 -999 -999 -999 -999 -999
2008-06-09 07:06:12 51°15.03 2°51.482 -999 -999 -999 -999 -999
2008-06-09 07:06:17 51°15.03 2°51.455 -999 -999 -999 -999 -999
2008-06-09 07:06:22 51°15.029 2°51.428 -999 -999 -999 -999 -999
2008-06-09 07:06:27 51°15.028 2°51.401 -999 -999 -999 -999 -999
2008-06-09 07:06:32 51°15.027 2°51.375 -999 -999 -999 -999 -999
2008-06-09 07:06:37 51°15.025 2°51.348 -999 -999 -999 -999 -999
2008-06-09 07:06:42 51°15.024 2°51.321 -999 -999 -999 -999 -999
2008-06-09 07:06:47 51°15.022 2°51.295 -999 -999 -999 -999 -999
2008-06-09 07:06:52 51°15.021 2°51.268 -999 -999 -999 -999 -999
2008-06-09 07:06:57 51°15.018 2°51.242 -999 -999 -999 -999 -999
2008-06-09 07:07:02 51°15.016 2°51.215 -999 -999 -999 -999 -999
2008-06-09 07:07:07 51°15.015 2°51.189 -999 -999 -999 -999 -999
2008-06-09 07:07:12 51°15.013 2°51.162 -999 -999 -999 -999 -999
2008-06-09 07:07:17 51°15.011 2°51.136 -999 -999 -999 -999 -999
2008-06-09 07:07:22 51°15.009 2°51.109 -999 -999 -999 -999 -999
2008-06-09 07:07:27 51°15.007 2°51.083 -999 -999 -999 -999 -999
2008-06-09 07:07:32 51°15.005 2°51.056 -999 -999 -999 -999 -999
2008-06-09 07:07:37 51°15.004 2°51.029 -999 -999 -999 -999 -999
2008-06-09 07:07:42 51°15.002 2°51.003 -999 -999 -999 -999 -999
2008-06-09 07:07:47 51°15 2°50.976 -999 -999 -999 -999 -999
2008-06-09 07:07:52 51°14.998 2°50.949 -999 -999 -999 -999 -999
2008-06-09 07:07:57 51°14.996 2°50.922 -999 -999 -999 -999 -999
2008-06-09 07:08:02 51°14.995 2°50.895 -999 -999 -999 -999 -999
2008-06-09 07:08:07 51°14.993 2°50.869 -999 -999 -999 -999 -999
2008-06-09 07:08:12 51°14.991 2°50.842 -999 -999 -999 -999 -999
2008-06-09 07:08:17 51°14.989 2°50.815 -999 -999 -999 -999 -999
2008-06-09 07:08:22 51°14.988 2°50.788 -999 -999 -999 -999 -999
2008-06-09 07:08:27 51°14.986 2°50.762 -999 -999 -999 -999 -999
2008-06-09 07:08:32 51°14.984 2°50.735 -999 -999 -999 -999 -999
2008-06-09 07:08:37 51°14.983 2°50.708 -999 -999 -999 -999 -999
2008-06-09 07:08:42 51°14.981 2°50.682 -999 -999 -999 -999 -999
2008-06-09 07:08:47 51°14.979 2°50.655 -999 -999 -999 -999 -999
2008-06-09 07:08:52 51°14.978 2°50.628 -999 -999 -999 -999 -999
2008-06-09 07:08:57 51°14.976 2°50.601 -999 -999 -999 -999 -999
2008-06-09 07:09:02 51°14.974 2°50.575 -999 -999 -999 -999 -999
2008-06-09 07:09:07 51°14.973 2°50.548 -999 -999 -999 -999 -999
2008-06-09 07:09:12 51°14.971 2°50.521 -999 -999 -999 -999 -999
2008-06-09 07:09:17 51°14.97 2°50.494 -999 -999 -999 -999 -999
2008-06-09 07:09:22 51°14.969 2°50.467 -999 -999 -999 -999 -999
2008-06-09 07:09:27 51°14.968 2°50.44 -999 -999 -999 -999 -999
2008-06-09 07:09:32 51°14.968 2°50.413 -999 -999 -999 -999 -999
2008-06-09 07:09:37 51°14.967 2°50.386 -999 -999 -999 -999 -999
2008-06-09 07:09:42 51°14.967 2°50.359 -999 -999 -999 -999 -999
2008-06-09 07:09:47 51°14.966 2°50.332 -999 -999 -999 -999 -999
2008-06-09 07:09:52 51°14.966 2°50.306 -999 -999 -999 -999 -999
2008-06-09 07:09:57 51°14.965 2°50.279 -999 -999 -999 -999 -999
2008-06-09 07:10:02 51°14.964 2°50.252 -999 -999 -999 -999 -999
2008-06-09 07:10:07 51°14.963 2°50.225 -999 -999 -999 -999 -999
2008-06-09 07:10:12 51°14.963 2°50.198 -999 -999 -999 -999 -999
2008-06-09 07:10:17 51°14.961 2°50.171 -999 -999 -999 -999 -999
2008-06-09 07:10:22 51°14.96 2°50.144 -999 -999 -999 -999 -999
2008-06-09 07:10:27 51°14.959 2°50.118 -999 -999 -999 -999 -999
2008-06-09 07:10:32 51°14.958 2°50.091 -999 -999 -999 -999 -999
2008-06-09 07:10:37 51°14.957 2°50.064 -999 -999 -999 -999 -999
2008-06-09 07:10:42 51°14.956 2°50.037 -999 -999 -999 -999 -999
2008-06-09 07:10:47 51°14.955 2°50.01 -999 -999 -999 -999 -999
2008-06-09 07:10:52 51°14.954 2°49.983 -999 -999 -999 -999 -999
2008-06-09 07:10:57 51°14.953 2°49.956 -999 -999 -999 -999 -999
2008-06-09 07:11:02 51°14.952 2°49.929 -999 -999 -999 -999 -999
2008-06-09 07:11:07 51°14.951 2°49.902 -999 -999 -999 -999 -999
2008-06-09 07:11:12 51°14.949 2°49.875 -999 -999 -999 -999 -999
2008-06-09 07:11:17 51°14.948 2°49.848 -999 -999 -999 -999 -999
2008-06-09 07:11:22 51°14.946 2°49.821 -999 -999 -999 -999 -999
2008-06-09 07:11:27 51°14.944 2°49.794 -999 -999 -999 -999 -999
2008-06-09 07:11:32 51°14.942 2°49.767 -999 -999 -999 -999 -999
2008-06-09 07:11:37 51°14.94 2°49.74 -999 -999 -999 -999 -999
2008-06-09 07:11:42 51°14.939 2°49.713 -999 -999 -999 -999 -999
2008-06-09 07:11:47 51°14.937 2°49.686 -999 -999 -999 -999 -999
2008-06-09 07:11:52 51°14.935 2°49.659 -999 -999 -999 -999 -999
2008-06-09 07:11:57 51°14.933 2°49.632 -999 -999 -999 -999 -999
2008-06-09 07:12:02 51°14.931 2°49.605 -999 -999 -999 -999 -999
2008-06-09 07:12:07 51°14.929 2°49.578 -999 -999 -999 -999 -999
2008-06-09 07:12:12 51°14.927 2°49.552 -999 -999 -999 -999 -999
2008-06-09 07:12:17 51°14.925 2°49.525 -999 -999 -999 -999 -999
2008-06-09 07:12:22 51°14.923 2°49.498 -999 -999 -999 -999 -999
2008-06-09 07:12:27 51°14.921 2°49.472 -999 -999 -999 -999 -999
2008-06-09 07:12:32 51°14.917 2°49.445 -999 -999 -999 -999 -999
2008-06-09 07:12:37 51°14.915 2°49.419 -999 -999 -999 -999 -999
2008-06-09 07:12:42 51°14.911 2°49.392 -999 -999 -999 -999 -999
2008-06-09 07:12:47 51°14.908 2°49.366 -999 -999 -999 -999 -999
2008-06-09 07:12:52 51°14.905 2°49.339 -999 -999 -999 -999 -999
2008-06-09 07:12:57 51°14.903 2°49.313 -999 -999 -999 -999 -999
2008-06-09 07:13:02 51°14.9 2°49.286 -999 -999 -999 -999 -999
2008-06-09 07:13:07 51°14.897 2°49.259 -999 -999 -999 -999 -999
2008-06-09 07:13:12 51°14.895 2°49.232 -999 -999 -999 -999 -999
2008-06-09 07:13:17 51°14.892 2°49.206 -999 -999 -999 -999 -999
2008-06-09 07:13:22 51°14.891 2°49.179 -999 -999 -999 -999 -999
2008-06-09 07:13:27 51°14.888 2°49.152 -999 -999 -999 -999 -999
2008-06-09 07:13:32 51°14.886 2°49.125 -999 -999 -999 -999 -999
2008-06-09 07:13:37 51°14.884 2°49.098 -999 -999 -999 -999 -999
2008-06-09 07:13:42 51°14.882 2°49.071 -999 -999 -999 -999 -999
2008-06-09 07:13:47 51°14.879 2°49.044 -999 -999 -999 -999 -999
2008-06-09 07:13:52 51°14.877 2°49.018 -999 -999 -999 -999 -999
2008-06-09 07:13:57 51°14.875 2°48.991 -999 -999 -999 -999 -999
2008-06-09 07:14:02 51°14.873 2°48.964 -999 -999 -999 -999 -999
2008-06-09 07:14:07 51°14.871 2°48.937 -999 -999 -999 -999 -999
2008-06-09 07:14:12 51°14.87 2°48.91 -999 -999 -999 -999 -999
2008-06-09 07:14:17 51°14.868 2°48.883 -999 -999 -999 -999 -999
2008-06-09 07:14:22 51°14.868 2°48.856 -999 -999 -999 -999 -999
2008-06-09 07:14:27 51°14.866 2°48.828 -999 -999 -999 -999 -999
2008-06-09 07:14:32 51°14.865 2°48.801 -999 -999 -999 -999 -999
2008-06-09 07:14:37 51°14.863 2°48.774 -999 -999 -999 -999 -999
2008-06-09 07:14:42 51°14.862 2°48.747 -999 -999 -999 -999 -999
2008-06-09 07:14:47 51°14.861 2°48.72 -999 -999 -999 -999 -999
2008-06-09 07:14:52 51°14.86 2°48.693 -999 -999 -999 -999 -999
2008-06-09 07:14:57 51°14.858 2°48.666 -999 -999 -999 -999 -999
2008-06-09 07:15:02 51°14.856 2°48.639 -999 -999 -999 -999 -999
2008-06-09 07:15:07 51°14.854 2°48.612 -999 -999 -999 -999 -999
2008-06-09 07:15:12 51°14.852 2°48.585 -999 -999 -999 -999 -999
2008-06-09 07:15:17 51°14.85 2°48.558 -999 -999 -999 -999 -999
2008-06-09 07:15:22 51°14.847 2°48.531 -999 -999 -999 -999 -999
2008-06-09 07:15:27 51°14.845 2°48.504 -999 -999 -999 -999 -999
2008-06-09 07:15:32 51°14.843 2°48.477 -999 -999 -999 -999 -999
2008-06-09 07:15:37 51°14.84 2°48.451 -999 -999 -999 -999 -999
2008-06-09 07:15:42 51°14.838 2°48.424 -999 -999 -999 -999 -999
2008-06-09 07:15:47 51°14.835 2°48.397 -999 -999 -999 -999 -999
2008-06-09 07:15:52 51°14.833 2°48.37 -999 -999 -999 -999 -999
2008-06-09 07:15:57 51°14.831 2°48.343 -999 -999 -999 -999 -999
2008-06-09 07:16:02 51°14.828 2°48.316 -999 -999 -999 -999 -999
2008-06-09 07:16:07 51°14.827 2°48.289 -999 -999 -999 -999 -999
2008-06-09 07:16:12 51°14.824 2°48.262 -999 -999 -999 -999 -999
2008-06-09 07:16:17 51°14.822 2°48.235 -999 -999 -999 -999 -999
2008-06-09 07:16:22 51°14.82 2°48.208 -999 -999 -999 -999 -999
2008-06-09 07:16:27 51°14.817 2°48.181 -999 -999 -999 -999 -999
2008-06-09 07:16:32 51°14.815 2°48.154 -999 -999 -999 -999 -999
2008-06-09 07:16:37 51°14.813 2°48.127 -999 -999 -999 -999 -999
2008-06-09 07:16:42 51°14.811 2°48.1 -999 -999 -999 -999 -999
2008-06-09 07:16:47 51°14.809 2°48.073 -999 -999 -999 -999 -999
2008-06-09 07:16:52 51°14.807 2°48.046 -999 -999 -999 -999 -999
2008-06-09 07:16:57 51°14.806 2°48.019 -999 -999 -999 -999 -999
2008-06-09 07:17:02 51°14.805 2°47.992 -999 -999 -999 -999 -999
2008-06-09 07:17:07 51°14.804 2°47.964 -999 -999 -999 -999 -999
2008-06-09 07:17:12 51°14.802 2°47.937 -999 -999 -999 -999 -999
2008-06-09 07:17:17 51°14.801 2°47.91 -999 -999 -999 -999 -999
2008-06-09 07:17:22 51°14.8 2°47.882 -999 -999 -999 -999 -999
2008-06-09 07:17:27 51°14.799 2°47.855 -999 -999 -999 -999 -999
2008-06-09 07:17:32 51°14.798 2°47.828 -999 -999 -999 -999 -999
2008-06-09 07:17:37 51°14.796 2°47.8 -999 -999 -999 -999 -999
2008-06-09 07:17:42 51°14.794 2°47.773 -999 -999 -999 -999 -999
2008-06-09 07:17:47 51°14.792 2°47.746 -999 -999 -999 -999 -999
2008-06-09 07:17:52 51°14.79 2°47.719 -999 -999 -999 -999 -999
2008-06-09 07:17:57 51°14.787 2°47.692 -999 -999 -999 -999 -999
2008-06-09 07:18:02 51°14.785 2°47.665 -999 -999 -999 -999 -999
2008-06-09 07:18:07 51°14.783 2°47.637 -999 -999 -999 -999 -999
2008-06-09 07:18:12 51°14.78 2°47.61 -999 -999 -999 -999 -999
2008-06-09 07:18:17 51°14.778 2°47.584 -999 -999 -999 -999 -999
2008-06-09 07:18:22 51°14.775 2°47.556 -999 -999 -999 -999 -999
2008-06-09 07:18:27 51°14.773 2°47.529 -999 -999 -999 -999 -999
2008-06-09 07:18:32 51°14.771 2°47.502 -999 -999 -999 -999 -999
2008-06-09 07:18:37 51°14.769 2°47.475 -999 -999 -999 -999 -999
2008-06-09 07:18:42 51°14.767 2°47.448 -999 -999 -999 -999 -999
2008-06-09 07:18:47 51°14.766 2°47.421 -999 -999 -999 -999 -999
2008-06-09 07:18:52 51°14.764 2°47.393 -999 -999 -999 -999 -999
2008-06-09 07:18:57 51°14.762 2°47.366 -999 -999 -999 -999 -999
2008-06-09 07:19:02 51°14.76 2°47.339 -999 -999 -999 -999 -999
2008-06-09 07:19:07 51°14.758 2°47.312 -999 -999 -999 -999 -999
2008-06-09 07:19:12 51°14.756 2°47.284 -999 -999 -999 -999 -999
2008-06-09 07:19:17 51°14.754 2°47.257 -999 -999 -999 -999 -999
2008-06-09 07:19:22 51°14.752 2°47.23 -999 -999 -999 -999 -999
2008-06-09 07:19:27 51°14.75 2°47.203 -999 -999 -999 -999 -999
2008-06-09 07:19:32 51°14.748 2°47.176 -999 -999 -999 -999 -999
2008-06-09 07:19:37 51°14.746 2°47.149 -999 -999 -999 -999 -999
2008-06-09 07:19:42 51°14.744 2°47.121 -999 -999 -999 -999 -999
2008-06-09 07:19:47 51°14.742 2°47.094 -999 -999 -999 -999 -999
2008-06-09 07:19:52 51°14.739 2°47.067 -999 -999 -999 -999 -999
2008-06-09 07:19:57 51°14.738 2°47.04 -999 -999 -999 -999 -999
2008-06-09 07:20:02 51°14.736 2°47.013 -999 -999 -999 -999 -999
2008-06-09 07:20:07 51°14.733 2°46.986 -999 -999 -999 -999 -999
2008-06-09 07:20:12 51°14.732 2°46.959 -999 -999 -999 -999 -999
2008-06-09 07:20:17 51°14.729 2°46.932 -999 -999 -999 -999 -999
2008-06-09 07:20:22 51°14.727 2°46.905 -999 -999 -999 -999 -999
2008-06-09 07:20:27 51°14.725 2°46.877 -999 -999 -999 -999 -999
2008-06-09 07:20:32 51°14.723 2°46.85 -999 -999 -999 -999 -999
2008-06-09 07:20:37 51°14.722 2°46.823 -999 -999 -999 -999 -999
2008-06-09 07:20:42 51°14.72 2°46.796 -999 -999 -999 -999 -999
2008-06-09 07:20:47 51°14.718 2°46.769 -999 -999 -999 -999 -999
2008-06-09 07:20:52 51°14.716 2°46.741 -999 -999 -999 -999 -999
2008-06-09 07:20:57 51°14.714 2°46.714 -999 -999 -999 -999 -999
2008-06-09 07:21:02 51°14.712 2°46.687 -999 -999 -999 -999 -999
2008-06-09 07:21:07 51°14.71 2°46.66 -999 -999 -999 -999 -999
2008-06-09 07:21:12 51°14.708 2°46.633 -999 -999 -999 -999 -999
2008-06-09 07:21:17 51°14.706 2°46.606 -999 -999 -999 -999 -999
2008-06-09 07:21:22 51°14.704 2°46.578 -999 -999 -999 -999 -999
2008-06-09 07:21:27 51°14.702 2°46.551 -999 -999 -999 -999 -999
2008-06-09 07:21:32 51°14.701 2°46.524 -999 -999 -999 -999 -999
2008-06-09 07:21:37 51°14.699 2°46.497 -999 -999 -999 -999 -999
2008-06-09 07:21:42 51°14.697 2°46.47 -999 -999 -999 -999 -999
2008-06-09 07:21:47 51°14.695 2°46.443 -999 -999 -999 -999 -999
2008-06-09 07:21:52 51°14.694 2°46.415 -999 -999 -999 -999 -999
2008-06-09 07:21:57 51°14.692 2°46.388 -999 -999 -999 -999 -999
2008-06-09 07:22:02 51°14.69 2°46.361 -999 -999 -999 -999 -999
2008-06-09 07:22:07 51°14.688 2°46.334 -999 -999 -999 -999 -999
2008-06-09 07:22:12 51°14.687 2°46.307 -999 -999 -999 -999 -999
2008-06-09 07:22:17 51°14.685 2°46.28 -999 -999 -999 -999 -999
2008-06-09 07:22:22 51°14.683 2°46.253 -999 -999 -999 -999 -999
2008-06-09 07:22:27 51°14.681 2°46.226 -999 -999 -999 -999 -999
2008-06-09 07:22:32 51°14.68 2°46.199 -999 -999 -999 -999 -999
2008-06-09 07:22:37 51°14.678 2°46.172 -999 -999 -999 -999 -999
2008-06-09 07:22:42 51°14.676 2°46.145 -999 -999 -999 -999 -999
2008-06-09 07:22:47 51°14.674 2°46.118 -999 -999 -999 -999 -999
2008-06-09 07:22:52 51°14.673 2°46.091 -999 -999 -999 -999 -999
2008-06-09 07:22:57 51°14.671 2°46.064 -999 -999 -999 -999 -999
2008-06-09 07:23:02 51°14.67 2°46.037 -999 -999 -999 -999 -999
2008-06-09 07:23:07 51°14.668 2°46.01 -999 -999 -999 -999 -999
2008-06-09 07:23:12 51°14.667 2°45.983 -999 -999 -999 -999 -999
2008-06-09 07:23:17 51°14.666 2°45.956 -999 -999 -999 -999 -999
2008-06-09 07:23:22 51°14.665 2°45.929 -999 -999 -999 -999 -999
2008-06-09 07:23:27 51°14.664 2°45.901 -999 -999 -999 -999 -999
2008-06-09 07:23:32 51°14.663 2°45.874 -999 -999 -999 -999 -999
2008-06-09 07:23:37 51°14.662 2°45.847 -999 -999 -999 -999 -999
2008-06-09 07:23:42 51°14.662 2°45.82 -999 -999 -999 -999 -999
2008-06-09 07:23:47 51°14.661 2°45.792 -999 -999 -999 -999 -999
2008-06-09 07:23:52 51°14.661 2°45.765 -999 -999 -999 -999 -999
2008-06-09 07:23:57 51°14.66 2°45.738 -999 -999 -999 -999 -999
2008-06-09 07:24:02 51°14.659 2°45.711 -999 -999 -999 -999 -999
2008-06-09 07:24:07 51°14.658 2°45.683 -999 -999 -999 -999 -999
2008-06-09 07:24:12 51°14.658 2°45.656 -999 -999 -999 -999 -999
2008-06-09 07:24:17 51°14.657 2°45.629 -999 -999 -999 -999 -999
2008-06-09 07:24:22 51°14.656 2°45.601 -999 -999 -999 -999 -999
2008-06-09 07:24:27 51°14.655 2°45.574 -999 -999 -999 -999 -999
2008-06-09 07:24:32 51°14.654 2°45.546 -999 -999 -999 -999 -999
2008-06-09 07:24:37 51°14.652 2°45.519 -999 -999 -999 -999 -999
2008-06-09 07:24:42 51°14.651 2°45.492 -999 -999 -999 -999 -999
2008-06-09 07:24:47 51°14.65 2°45.464 -999 -999 -999 -999 -999
2008-06-09 07:24:52 51°14.648 2°45.437 -999 -999 -999 -999 -999
2008-06-09 07:24:57 51°14.647 2°45.409 -999 -999 -999 -999 -999
2008-06-09 07:25:02 51°14.646 2°45.382 -999 -999 -999 -999 -999
2008-06-09 07:25:07 51°14.645 2°45.354 -999 -999 -999 -999 -999
2008-06-09 07:25:12 51°14.643 2°45.327 -999 -999 -999 -999 -999
2008-06-09 07:25:17 51°14.642 2°45.299 -999 -999 -999 -999 -999
2008-06-09 07:25:22 51°14.64 2°45.272 -999 -999 -999 -999 -999
2008-06-09 07:25:27 51°14.639 2°45.244 -999 -999 -999 -999 -999
2008-06-09 07:25:32 51°14.637 2°45.217 -999 -999 -999 -999 -999
2008-06-09 07:25:37 51°14.636 2°45.189 -999 -999 -999 -999 -999
2008-06-09 07:25:42 51°14.634 2°45.162 -999 -999 -999 -999 -999
2008-06-09 07:25:47 51°14.632 2°45.135 -999 -999 -999 -999 -999
2008-06-09 07:25:52 51°14.63 2°45.107 -999 -999 -999 -999 -999
2008-06-09 07:25:57 51°14.627 2°45.08 -999 -999 -999 -999 -999
2008-06-09 07:26:02 51°14.625 2°45.053 -999 -999 -999 -999 -999
2008-06-09 07:26:07 51°14.622 2°45.026 -999 -999 -999 -999 -999
2008-06-09 07:26:12 51°14.617 2°44.999 -999 -999 -999 -999 -999
2008-06-09 07:26:17 51°14.613 2°44.973 -999 -999 -999 -999 -999
2008-06-09 07:26:22 51°14.606 2°44.948 -999 -999 -999 -999 -999
2008-06-09 07:26:27 51°14.599 2°44.923 -999 -999 -999 -999 -999
2008-06-09 07:26:32 51°14.592 2°44.898 -999 -999 -999 -999 -999
2008-06-09 07:26:37 51°14.584 2°44.874 -999 -999 -999 -999 -999
2008-06-09 07:26:42 51°14.576 2°44.85 -999 -999 -999 -999 -999
2008-06-09 07:26:47 51°14.567 2°44.826 -999 -999 -999 -999 -999
2008-06-09 07:26:52 51°14.558 2°44.803 -999 -999 -999 -999 -999
2008-06-09 07:26:57 51°14.549 2°44.78 -999 -999 -999 -999 -999
2008-06-09 07:27:02 51°14.539 2°44.757 -999 -999 -999 -999 -999
2008-06-09 07:27:07 51°14.529 2°44.734 -999 -999 -999 -999 -999
2008-06-09 07:27:12 51°14.52 2°44.711 -999 -999 -999 -999 -999
2008-06-09 07:27:17 51°14.51 2°44.689 -999 -999 -999 -999 -999
2008-06-09 07:27:22 51°14.501 2°44.666 -999 -999 -999 -999 -999
2008-06-09 07:27:27 51°14.491 2°44.643 -999 -999 -999 -999 -999
2008-06-09 07:27:32 51°14.481 2°44.621 -999 -999 -999 -999 -999
2008-06-09 07:27:37 51°14.472 2°44.598 -999 -999 -999 -999 -999
2008-06-09 07:27:42 51°14.462 2°44.575 -999 -999 -999 -999 -999
2008-06-09 07:27:47 51°14.452 2°44.552 -999 -999 -999 -999 -999
2008-06-09 07:27:52 51°14.443 2°44.529 -999 -999 -999 -999 -999
2008-06-09 07:27:57 51°14.433 2°44.507 -999 -999 -999 -999 -999
2008-06-09 07:28:02 51°14.424 2°44.483 -999 -999 -999 -999 -999
2008-06-09 07:28:07 51°14.414 2°44.46 -999 -999 -999 -999 -999
2008-06-09 07:28:12 51°14.405 2°44.437 -999 -999 -999 -999 -999
2008-06-09 07:28:17 51°14.396 2°44.414 -999 -999 -999 -999 -999
2008-06-09 07:28:22 51°14.387 2°44.39 -999 -999 -999 -999 -999
2008-06-09 07:28:27 51°14.378 2°44.366 -999 -999 -999 -999 -999
2008-06-09 07:28:32 51°14.369 2°44.343 -999 -999 -999 -999 -999
2008-06-09 07:28:37 51°14.36 2°44.319 -999 -999 -999 -999 -999
2008-06-09 07:28:42 51°14.352 2°44.294 -999 -999 -999 -999 -999
2008-06-09 07:28:47 51°14.343 2°44.27 -999 -999 -999 -999 -999
2008-06-09 07:28:52 51°14.335 2°44.246 -999 -999 -999 -999 -999
2008-06-09 07:28:57 51°14.326 2°44.222 -999 -999 -999 -999 -999
2008-06-09 07:29:02 51°14.317 2°44.199 -999 -999 -999 -999 -999
2008-06-09 07:29:07 51°14.308 2°44.175 -999 -999 -999 -999 -999
2008-06-09 07:29:12 51°14.299 2°44.151 -999 -999 -999 -999 -999
2008-06-09 07:29:17 51°14.29 2°44.128 -999 -999 -999 -999 -999
2008-06-09 07:29:22 51°14.281 2°44.104 -999 -999 -999 -999 -999
2008-06-09 07:29:27 51°14.271 2°44.081 -999 -999 -999 -999 -999
2008-06-09 07:29:32 51°14.262 2°44.057 -999 -999 -999 -999 -999
2008-06-09 07:29:37 51°14.253 2°44.034 -999 -999 -999 -999 -999
2008-06-09 07:29:42 51°14.244 2°44.01 -999 -999 -999 -999 -999
2008-06-09 07:29:47 51°14.234 2°43.988 -999 -999 -999 -999 -999
2008-06-09 07:29:52 51°14.225 2°43.965 -999 -999 -999 -999 -999
2008-06-09 07:29:57 51°14.215 2°43.942 -999 -999 -999 -999 -999
2008-06-09 07:30:02 51°14.205 2°43.919 -999 -999 -999 -999 -999
2008-06-09 07:30:07 51°14.195 2°43.896 -999 -999 -999 -999 -999
2008-06-09 07:30:12 51°14.186 2°43.873 -999 -999 -999 -999 -999
2008-06-09 07:30:17 51°14.176 2°43.851 -999 -999 -999 -999 -999
2008-06-09 07:30:22 51°14.166 2°43.828 -999 -999 -999 -999 -999
2008-06-09 07:30:27 51°14.156 2°43.805 -999 -999 -999 -999 -999
2008-06-09 07:30:32 51°14.146 2°43.782 -999 -999 -999 -999 -999
2008-06-09 07:30:37 51°14.136 2°43.759 -999 -999 -999 -999 -999
2008-06-09 07:30:42 51°14.126 2°43.737 -999 -999 -999 -999 -999
2008-06-09 07:30:47 51°14.116 2°43.713 -999 -999 -999 -999 -999
2008-06-09 07:30:52 51°14.106 2°43.691 -999 -999 -999 -999 -999
2008-06-09 07:30:57 51°14.097 2°43.668 -999 -999 -999 -999 -999
2008-06-09 07:31:02 51°14.087 2°43.645 -999 -999 -999 -999 -999
2008-06-09 07:31:07 51°14.077 2°43.622 -999 -999 -999 -999 -999
2008-06-09 07:31:12 51°14.067 2°43.599 -999 -999 -999 -999 -999
2008-06-09 07:31:17 51°14.057 2°43.577 -999 -999 -999 -999 -999
2008-06-09 07:31:22 51°14.047 2°43.554 -999 -999 -999 -999 -999
2008-06-09 07:31:27 51°14.037 2°43.531 -999 -999 -999 -999 -999
2008-06-09 07:31:32 51°14.027 2°43.508 -999 -999 -999 -999 -999
2008-06-09 07:31:37 51°14.017 2°43.486 -999 -999 -999 -999 -999
2008-06-09 07:31:42 51°14.007 2°43.463 -999 -999 -999 -999 -999
2008-06-09 07:31:47 51°13.997 2°43.44 -999 -999 -999 -999 -999
2008-06-09 07:31:52 51°13.987 2°43.418 -999 -999 -999 -999 -999
2008-06-09 07:31:57 51°13.977 2°43.395 -999 -999 -999 -999 -999
2008-06-09 07:32:02 51°13.967 2°43.373 -999 -999 -999 -999 -999
2008-06-09 07:32:07 51°13.957 2°43.35 -999 -999 -999 -999 -999
2008-06-09 07:32:12 51°13.946 2°43.327 -999 -999 -999 -999 -999
2008-06-09 07:32:17 51°13.937 2°43.305 -999 -999 -999 -999 -999
2008-06-09 07:32:22 51°13.926 2°43.281 -999 -999 -999 -999 -999
2008-06-09 07:32:27 51°13.917 2°43.259 -999 -999 -999 -999 -999
2008-06-09 07:32:32 51°13.906 2°43.236 -999 -999 -999 -999 -999
2008-06-09 07:32:37 51°13.897 2°43.213 -999 -999 -999 -999 -999
2008-06-09 07:32:42 51°13.887 2°43.191 -999 -999 -999 -999 -999
2008-06-09 07:32:47 51°13.876 2°43.168 -999 -999 -999 -999 -999
2008-06-09 07:32:52 51°13.867 2°43.146 -999 -999 -999 -999 -999
2008-06-09 07:32:57 51°13.857 2°43.123 -999 -999 -999 -999 -999
2008-06-09 07:33:02 51°13.846 2°43.101 -999 -999 -999 -999 -999
2008-06-09 07:33:07 51°13.836 2°43.079 -999 -999 -999 -999 -999
2008-06-09 07:33:12 51°13.825 2°43.057 -999 -999 -999 -999 -999
2008-06-09 07:33:17 51°13.815 2°43.035 -999 -999 -999 -999 -999
2008-06-09 07:33:22 51°13.803 2°43.014 -999 -999 -999 -999 -999
2008-06-09 07:33:27 51°13.793 2°42.992 -999 -999 -999 -999 -999
2008-06-09 07:33:32 51°13.782 2°42.971 -999 -999 -999 -999 -999
2008-06-09 07:33:37 51°13.771 2°42.949 -999 -999 -999 -999 -999
2008-06-09 07:33:42 51°13.761 2°42.927 -999 -999 -999 -999 -999
2008-06-09 07:33:47 51°13.75 2°42.905 -999 -999 -999 -999 -999
2008-06-09 07:33:52 51°13.74 2°42.883 -999 -999 -999 -999 -999
2008-06-09 07:33:57 51°13.73 2°42.86 -999 -999 -999 -999 -999
2008-06-09 07:34:02 51°13.72 2°42.837 -999 -999 -999 -999 -999
2008-06-09 07:34:07 51°13.71 2°42.815 -999 -999 -999 -999 -999
2008-06-09 07:34:12 51°13.7 2°42.792 -999 -999 -999 -999 -999
2008-06-09 07:34:17 51°13.69 2°42.769 -999 -999 -999 -999 -999
2008-06-09 07:34:22 51°13.68 2°42.746 -999 -999 -999 -999 -999
2008-06-09 07:34:27 51°13.67 2°42.723 -999 -999 -999 -999 -999
2008-06-09 07:34:32 51°13.66 2°42.7 -999 -999 -999 -999 -999
2008-06-09 07:34:37 51°13.65 2°42.677 -999 -999 -999 -999 -999
2008-06-09 07:34:42 51°13.641 2°42.654 -999 -999 -999 -999 -999
2008-06-09 07:34:47 51°13.631 2°42.631 -999 -999 -999 -999 -999
2008-06-09 07:34:52 51°13.621 2°42.608 -999 -999 -999 -999 -999
2008-06-09 07:34:57 51°13.611 2°42.585 -999 -999 -999 -999 -999
2008-06-09 07:35:02 51°13.601 2°42.562 -999 -999 -999 -999 -999
2008-06-09 07:35:07 51°13.591 2°42.54 -999 -999 -999 -999 -999
2008-06-09 07:35:12 51°13.581 2°42.517 -999 -999 -999 -999 -999
2008-06-09 07:35:17 51°13.571 2°42.494 -999 -999 -999 -999 -999
2008-06-09 07:35:22 51°13.561 2°42.471 -999 -999 -999 -999 -999
2008-06-09 07:35:27 51°13.55 2°42.45 -999 -999 -999 -999 -999
2008-06-09 07:35:32 51°13.54 2°42.427 -999 -999 -999 -999 -999
2008-06-09 07:35:37 51°13.529 2°42.405 -999 -999 -999 -999 -999
2008-06-09 07:35:42 51°13.518 2°42.383 -999 -999 -999 -999 -999
2008-06-09 07:35:47 51°13.507 2°42.362 -999 -999 -999 -999 -999
2008-06-09 07:35:52 51°13.496 2°42.34 -999 -999 -999 -999 -999
2008-06-09 07:35:57 51°13.485 2°42.319 -999 -999 -999 -999 -999
2008-06-09 07:36:02 51°13.474 2°42.297 -999 -999 -999 -999 -999
2008-06-09 07:36:07 51°13.463 2°42.276 -999 -999 -999 -999 -999
2008-06-09 07:36:12 51°13.452 2°42.254 -999 -999 -999 -999 -999
2008-06-09 07:36:17 51°13.441 2°42.232 -999 -999 -999 -999 -999
2008-06-09 07:36:22 51°13.431 2°42.21 -999 -999 -999 -999 -999
2008-06-09 07:36:27 51°13.42 2°42.188 -999 -999 -999 -999 -999
2008-06-09 07:36:32 51°13.41 2°42.166 -999 -999 -999 -999 -999
2008-06-09 07:36:37 51°13.399 2°42.143 -999 -999 -999 -999 -999
2008-06-09 07:36:42 51°13.389 2°42.121 -999 -999 -999 -999 -999
2008-06-09 07:36:47 51°13.379 2°42.098 -999 -999 -999 -999 -999
2008-06-09 07:36:52 51°13.368 2°42.076 -999 -999 -999 -999 -999
2008-06-09 07:36:57 51°13.358 2°42.054 -999 -999 -999 -999 -999
2008-06-09 07:37:02 51°13.347 2°42.031 -999 -999 -999 -999 -999
2008-06-09 07:37:07 51°13.337 2°42.009 -999 -999 -999 -999 -999
2008-06-09 07:37:12 51°13.326 2°41.987 -999 -999 -999 -999 -999
2008-06-09 07:37:17 51°13.316 2°41.965 -999 -999 -999 -999 -999
2008-06-09 07:37:22 51°13.305 2°41.942 -999 -999 -999 -999 -999
2008-06-09 07:37:27 51°13.295 2°41.92 -999 -999 -999 -999 -999
2008-06-09 07:37:32 51°13.285 2°41.897 -999 -999 -999 -999 -999
2008-06-09 07:37:37 51°13.274 2°41.875 -999 -999 -999 -999 -999
2008-06-09 07:37:42 51°13.264 2°41.853 -999 -999 -999 -999 -999
2008-06-09 07:37:47 51°13.253 2°41.83 -999 -999 -999 -999 -999
2008-06-09 07:37:52 51°13.243 2°41.808 -999 -999 -999 -999 -999
2008-06-09 07:37:57 51°13.233 2°41.785 -999 -999 -999 -999 -999
2008-06-09 07:38:02 51°13.222 2°41.763 -999 -999 -999 -999 -999
2008-06-09 07:38:07 51°13.212 2°41.741 -999 -999 -999 -999 -999
2008-06-09 07:38:12 51°13.202 2°41.718 -999 -999 -999 -999 -999
2008-06-09 07:38:17 51°13.191 2°41.696 -999 -999 -999 -999 -999
2008-06-09 07:38:22 51°13.181 2°41.674 -999 -999 -999 -999 -999
2008-06-09 07:38:27 51°13.171 2°41.651 -999 -999 -999 -999 -999
2008-06-09 07:38:32 51°13.161 2°41.628 -999 -999 -999 -999 -999
2008-06-09 07:38:37 51°13.151 2°41.605 -999 -999 -999 -999 -999
2008-06-09 07:38:42 51°13.14 2°41.583 -999 -999 -999 -999 -999
2008-06-09 07:38:47 51°13.13 2°41.56 -999 -999 -999 -999 -999
2008-06-09 07:38:52 51°13.12 2°41.538 -999 -999 -999 -999 -999
2008-06-09 07:38:57 51°13.11 2°41.515 -999 -999 -999 -999 -999
2008-06-09 07:39:02 51°13.099 2°41.493 -999 -999 -999 -999 -999
2008-06-09 07:39:07 51°13.089 2°41.47 -999 -999 -999 -999 -999
2008-06-09 07:39:12 51°13.079 2°41.448 -999 -999 -999 -999 -999
2008-06-09 07:39:17 51°13.068 2°41.425 -999 -999 -999 -999 -999
2008-06-09 07:39:22 51°13.058 2°41.403 -999 -999 -999 -999 -999
2008-06-09 07:39:27 51°13.048 2°41.38 -999 -999 -999 -999 -999
2008-06-09 07:39:32 51°13.038 2°41.358 -999 -999 -999 -999 -999
2008-06-09 07:39:37 51°13.028 2°41.335 -999 -999 -999 -999 -999
2008-06-09 07:39:42 51°13.017 2°41.313 -999 -999 -999 -999 -999
2008-06-09 07:39:47 51°13.007 2°41.29 -999 -999 -999 -999 -999
2008-06-09 07:39:52 51°12.997 2°41.267 -999 -999 -999 -999 -999
2008-06-09 07:39:57 51°12.987 2°41.245 -999 -999 -999 -999 -999
2008-06-09 07:40:02 51°12.977 2°41.222 -999 -999 -999 -999 -999
2008-06-09 07:40:07 51°12.966 2°41.2 -999 -999 -999 -999 -999
2008-06-09 07:40:12 51°12.957 2°41.177 -999 -999 -999 -999 -999
2008-06-09 07:40:17 51°12.946 2°41.154 -999 -999 -999 -999 -999
2008-06-09 07:40:22 51°12.936 2°41.131 -999 -999 -999 -999 -999
2008-06-09 07:40:27 51°12.926 2°41.109 -999 -999 -999 -999 -999
2008-06-09 07:40:32 51°12.916 2°41.086 -999 -999 -999 -999 -999
2008-06-09 07:40:37 51°12.906 2°41.063 -999 -999 -999 -999 -999
2008-06-09 07:40:42 51°12.896 2°41.04 -999 -999 -999 -999 -999
2008-06-09 07:40:47 51°12.885 2°41.018 -999 -999 -999 -999 -999
2008-06-09 07:40:52 51°12.875 2°40.995 -999 -999 -999 -999 -999
2008-06-09 07:40:57 51°12.865 2°40.973 -999 -999 -999 -999 -999
2008-06-09 07:41:02 51°12.855 2°40.95 -999 -999 -999 -999 -999
2008-06-09 07:41:07 51°12.845 2°40.927 -999 -999 -999 -999 -999
2008-06-09 07:41:12 51°12.834 2°40.905 -999 -999 -999 -999 -999
2008-06-09 07:41:17 51°12.824 2°40.882 -999 -999 -999 -999 -999
2008-06-09 07:41:22 51°12.814 2°40.859 -999 -999 -999 -999 -999
2008-06-09 07:41:27 51°12.804 2°40.837 -999 -999 -999 -999 -999
2008-06-09 07:41:32 51°12.794 2°40.814 -999 -999 -999 -999 -999
2008-06-09 07:41:37 51°12.784 2°40.791 -999 -999 -999 -999 -999
2008-06-09 07:41:42 51°12.774 2°40.768 -999 -999 -999 -999 -999
2008-06-09 07:41:47 51°12.764 2°40.745 -999 -999 -999 -999 -999
2008-06-09 07:41:52 51°12.754 2°40.722 -999 -999 -999 -999 -999
2008-06-09 07:41:57 51°12.744 2°40.699 -999 -999 -999 -999 -999
2008-06-09 07:42:02 51°12.734 2°40.676 -999 -999 -999 -999 -999
2008-06-09 07:42:07 51°12.724 2°40.653 -999 -999 -999 -999 -999
2008-06-09 07:42:12 51°12.714 2°40.631 -999 -999 -999 -999 -999
2008-06-09 07:42:17 51°12.704 2°40.608 -999 -999 -999 -999 -999
2008-06-09 07:42:22 51°12.694 2°40.585 -999 -999 -999 -999 -999
2008-06-09 07:42:27 51°12.684 2°40.562 -999 -999 -999 -999 -999
2008-06-09 07:42:32 51°12.675 2°40.539 -999 -999 -999 -999 -999
2008-06-09 07:42:37 51°12.665 2°40.516 -999 -999 -999 -999 -999
2008-06-09 07:42:42 51°12.656 2°40.492 -999 -999 -999 -999 -999
2008-06-09 07:42:47 51°12.646 2°40.469 -999 -999 -999 -999 -999
2008-06-09 07:42:52 51°12.637 2°40.445 -999 -999 -999 -999 -999
2008-06-09 07:42:57 51°12.627 2°40.422 -999 -999 -999 -999 -999
2008-06-09 07:43:02 51°12.618 2°40.398 -999 -999 -999 -999 -999
2008-06-09 07:43:07 51°12.609 2°40.374 -999 -999 -999 -999 -999
2008-06-09 07:43:12 51°12.6 2°40.35 -999 -999 -999 -999 -999
2008-06-09 07:43:17 51°12.591 2°40.326 -999 -999 -999 -999 -999
2008-06-09 07:43:22 51°12.582 2°40.303 -999 -999 -999 -999 -999
2008-06-09 07:43:27 51°12.572 2°40.279 -999 -999 -999 -999 -999
2008-06-09 07:43:32 51°12.563 2°40.255 -999 -999 -999 -999 -999
2008-06-09 07:43:37 51°12.554 2°40.232 -999 -999 -999 -999 -999
2008-06-09 07:43:42 51°12.544 2°40.208 -999 -999 -999 -999 -999
2008-06-09 07:43:47 51°12.534 2°40.185 -999 -999 -999 -999 -999
2008-06-09 07:43:52 51°12.525 2°40.162 -999 -999 -999 -999 -999
2008-06-09 07:43:57 51°12.515 2°40.139 -999 -999 -999 -999 -999
2008-06-09 07:44:02 51°12.505 2°40.116 -999 -999 -999 -999 -999
2008-06-09 07:44:07 51°12.495 2°40.093 -999 -999 -999 -999 -999
2008-06-09 07:44:12 51°12.485 2°40.071 -999 -999 -999 -999 -999
2008-06-09 07:44:17 51°12.474 2°40.049 -999 -999 -999 -999 -999
2008-06-09 07:44:22 51°12.463 2°40.028 -999 -999 -999 -999 -999
2008-06-09 07:44:27 51°12.452 2°40.006 -999 -999 -999 -999 -999
2008-06-09 07:44:32 51°12.441 2°39.985 -999 -999 -999 -999 -999
2008-06-09 07:44:37 51°12.43 2°39.964 -999 -999 -999 -999 -999
2008-06-09 07:44:42 51°12.419 2°39.943 -999 -999 -999 -999 -999
2008-06-09 07:44:47 51°12.408 2°39.922 -999 -999 -999 -999 -999
2008-06-09 07:44:52 51°12.396 2°39.901 -999 -999 -999 -999 -999
2008-06-09 07:44:57 51°12.385 2°39.88 -999 -999 -999 -999 -999
2008-06-09 07:45:02 51°12.374 2°39.859 -999 -999 -999 -999 -999
2008-06-09 07:45:07 51°12.363 2°39.838 -999 -999 -999 -999 -999
2008-06-09 07:45:12 51°12.352 2°39.817 -999 -999 -999 -999 -999
2008-06-09 07:45:17 51°12.341 2°39.796 -999 -999 -999 -999 -999
2008-06-09 07:45:22 51°12.33 2°39.775 -999 -999 -999 -999 -999
2008-06-09 07:45:27 51°12.319 2°39.754 -999 -999 -999 -999 -999
2008-06-09 07:45:32 51°12.308 2°39.734 -999 -999 -999 -999 -999
2008-06-09 07:45:37 51°12.297 2°39.713 -999 -999 -999 -999 -999
2008-06-09 07:45:42 51°12.287 2°39.692 -999 -999 -999 -999 -999
2008-06-09 07:45:47 51°12.276 2°39.67 -999 -999 -999 -999 -999
2008-06-09 07:45:52 51°12.266 2°39.648 -999 -999 -999 -999 -999
2008-06-09 07:45:57 51°12.255 2°39.627 -999 -999 -999 -999 -999
2008-06-09 07:46:02 51°12.245 2°39.605 -999 -999 -999 -999 -999
2008-06-09 07:46:07 51°12.235 2°39.584 -999 -999 -999 -999 -999
2008-06-09 07:46:12 51°12.224 2°39.562 -999 -999 -999 -999 -999
2008-06-09 07:46:17 51°12.214 2°39.541 -999 -999 -999 -999 -999
2008-06-09 07:46:22 51°12.204 2°39.519 -999 -999 -999 -999 -999
2008-06-09 07:46:27 51°12.193 2°39.498 -999 -999 -999 -999 -999
2008-06-09 07:46:32 51°12.183 2°39.476 -999 -999 -999 -999 -999
2008-06-09 07:46:37 51°12.172 2°39.455 -999 -999 -999 -999 -999
2008-06-09 07:46:42 51°12.162 2°39.432 -999 -999 -999 -999 -999
2008-06-09 07:46:47 51°12.151 2°39.411 -999 -999 -999 -999 -999
2008-06-09 07:46:52 51°12.141 2°39.389 -999 -999 -999 -999 -999
2008-06-09 07:46:57 51°12.131 2°39.366 -999 -999 -999 -999 -999
2008-06-09 07:47:02 51°12.122 2°39.344 -999 -999 -999 -999 -999
2008-06-09 07:47:07 51°12.112 2°39.321 -999 -999 -999 -999 -999
2008-06-09 07:47:12 51°12.102 2°39.298 -999 -999 -999 -999 -999
2008-06-09 07:47:17 51°12.093 2°39.276 -999 -999 -999 -999 -999
2008-06-09 07:47:22 51°12.083 2°39.253 -999 -999 -999 -999 -999
2008-06-09 07:47:27 51°12.073 2°39.231 -999 -999 -999 -999 -999
2008-06-09 07:47:32 51°12.063 2°39.208 -999 -999 -999 -999 -999
2008-06-09 07:47:37 51°12.053 2°39.186 -999 -999 -999 -999 -999
2008-06-09 07:47:42 51°12.042 2°39.164 -999 -999 -999 -999 -999
2008-06-09 07:47:47 51°12.032 2°39.143 -999 -999 -999 -999 -999
2008-06-09 07:47:52 51°12.022 2°39.12 -999 -999 -999 -999 -999
2008-06-09 07:47:57 51°12.012 2°39.098 -999 -999 -999 -999 -999
2008-06-09 07:48:02 51°12.001 2°39.076 -999 -999 -999 -999 -999
2008-06-09 07:48:07 51°11.991 2°39.054 -999 -999 -999 -999 -999
2008-06-09 07:48:12 51°11.981 2°39.032 -999 -999 -999 -999 -999
2008-06-09 07:48:17 51°11.971 2°39.01 -999 -999 -999 -999 -999
2008-06-09 07:48:22 51°11.96 2°38.989 -999 -999 -999 -999 -999
2008-06-09 07:48:27 51°11.949 2°38.967 -999 -999 -999 -999 -999
2008-06-09 07:48:32 51°11.938 2°38.946 -999 -999 -999 -999 -999
2008-06-09 07:48:37 51°11.927 2°38.925 -999 -999 -999 -999 -999
2008-06-09 07:48:42 51°11.916 2°38.905 -999 -999 -999 -999 -999
2008-06-09 07:48:47 51°11.905 2°38.884 -999 -999 -999 -999 -999
2008-06-09 07:48:52 51°11.894 2°38.863 -999 -999 -999 -999 -999
2008-06-09 07:48:57 51°11.883 2°38.842 -999 -999 -999 -999 -999
2008-06-09 07:49:02 51°11.872 2°38.821 -999 -999 -999 -999 -999
2008-06-09 07:49:07 51°11.861 2°38.8 -999 -999 -999 -999 -999
2008-06-09 07:49:12 51°11.85 2°38.779 -999 -999 -999 -999 -999
2008-06-09 07:49:17 51°11.839 2°38.758 -999 -999 -999 -999 -999
2008-06-09 07:49:22 51°11.828 2°38.737 -999 -999 -999 -999 -999
2008-06-09 07:49:27 51°11.817 2°38.716 -999 -999 -999 -999 -999
2008-06-09 07:49:32 51°11.806 2°38.695 -999 -999 -999 -999 -999
2008-06-09 07:49:37 51°11.795 2°38.674 -999 -999 -999 -999 -999
2008-06-09 07:49:42 51°11.784 2°38.654 -999 -999 -999 -999 -999
2008-06-09 07:49:47 51°11.773 2°38.633 -999 -999 -999 -999 -999
2008-06-09 07:49:52 51°11.762 2°38.612 -999 -999 -999 -999 -999
2008-06-09 07:49:57 51°11.751 2°38.591 -999 -999 -999 -999 -999
2008-06-09 07:50:02 51°11.74 2°38.57 -999 -999 -999 -999 -999
2008-06-09 07:50:07 51°11.729 2°38.55 -999 -999 -999 -999 -999
2008-06-09 07:50:12 51°11.718 2°38.529 -999 -999 -999 -999 -999
2008-06-09 07:50:17 51°11.707 2°38.508 -999 -999 -999 -999 -999
2008-06-09 07:50:22 51°11.696 2°38.487 -999 -999 -999 -999 -999
2008-06-09 07:50:27 51°11.685 2°38.466 -999 -999 -999 -999 -999
2008-06-09 07:50:32 51°11.675 2°38.445 -999 -999 -999 -999 -999
2008-06-09 07:50:37 51°11.664 2°38.424 -999 -999 -999 -999 -999
2008-06-09 07:50:42 51°11.653 2°38.403 -999 -999 -999 -999 -999
2008-06-09 07:50:47 51°11.642 2°38.382 -999 -999 -999 -999 -999
2008-06-09 07:50:52 51°11.631 2°38.361 -999 -999 -999 -999 -999
2008-06-09 07:50:57 51°11.621 2°38.34 -999 -999 -999 -999 -999
2008-06-09 07:51:02 51°11.61 2°38.319 -999 -999 -999 -999 -999
2008-06-09 07:51:07 51°11.599 2°38.298 -999 -999 -999 -999 -999
2008-06-09 07:51:12 51°11.589 2°38.277 -999 -999 -999 -999 -999
2008-06-09 07:51:17 51°11.578 2°38.256 -999 -999 -999 -999 -999
2008-06-09 07:51:22 51°11.567 2°38.235 -999 -999 -999 -999 -999
2008-06-09 07:51:27 51°11.556 2°38.214 -999 -999 -999 -999 -999
2008-06-09 07:51:32 51°11.546 2°38.193 -999 -999 -999 -999 -999
2008-06-09 07:51:37 51°11.535 2°38.172 -999 -999 -999 -999 -999
2008-06-09 07:51:42 51°11.524 2°38.151 -999 -999 -999 -999 -999
2008-06-09 07:51:47 51°11.514 2°38.13 -999 -999 -999 -999 -999
2008-06-09 07:51:52 51°11.503 2°38.109 -999 -999 -999 -999 -999
2008-06-09 07:51:57 51°11.492 2°38.088 -999 -999 -999 -999 -999
2008-06-09 07:52:02 51°11.482 2°38.067 -999 -999 -999 -999 -999
2008-06-09 07:52:07 51°11.471 2°38.046 -999 -999 -999 -999 -999
2008-06-09 07:52:12 51°11.46 2°38.025 -999 -999 -999 -999 -999
2008-06-09 07:52:17 51°11.449 2°38.004 -999 -999 -999 -999 -999
2008-06-09 07:52:22 51°11.439 2°37.983 -999 -999 -999 -999 -999
2008-06-09 07:52:27 51°11.428 2°37.962 -999 -999 -999 -999 -999
2008-06-09 07:52:32 51°11.417 2°37.941 -999 -999 -999 -999 -999
2008-06-09 07:52:37 51°11.406 2°37.92 -999 -999 -999 -999 -999
2008-06-09 07:52:42 51°11.395 2°37.899 -999 -999 -999 -999 -999
2008-06-09 07:52:47 51°11.385 2°37.877 -999 -999 -999 -999 -999
2008-06-09 07:52:52 51°11.374 2°37.856 -999 -999 -999 -999 -999
2008-06-09 07:52:57 51°11.363 2°37.835 -999 -999 -999 -999 -999
2008-06-09 07:53:02 51°11.352 2°37.814 -999 -999 -999 -999 -999
2008-06-09 07:53:07 51°11.342 2°37.793 -999 -999 -999 -999 -999
2008-06-09 07:53:12 51°11.331 2°37.771 -999 -999 -999 -999 -999
2008-06-09 07:53:17 51°11.32 2°37.75 -999 -999 -999 -999 -999
2008-06-09 07:53:22 51°11.309 2°37.729 -999 -999 -999 -999 -999
2008-06-09 07:53:27 51°11.298 2°37.707 -999 -999 -999 -999 -999
2008-06-09 07:53:32 51°11.288 2°37.686 -999 -999 -999 -999 -999
2008-06-09 07:53:37 51°11.277 2°37.665 -999 -999 -999 -999 -999
2008-06-09 07:53:42 51°11.266 2°37.643 -999 -999 -999 -999 -999
2008-06-09 07:53:47 51°11.256 2°37.622 -999 -999 -999 -999 -999
2008-06-09 07:53:52 51°11.245 2°37.6 -999 -999 -999 -999 -999
2008-06-09 07:53:57 51°11.234 2°37.579 -999 -999 -999 -999 -999
2008-06-09 07:54:02 51°11.224 2°37.557 -999 -999 -999 -999 -999
2008-06-09 07:54:07 51°11.213 2°37.536 -999 -999 -999 -999 -999
2008-06-09 07:54:12 51°11.202 2°37.514 -999 -999 -999 -999 -999
2008-06-09 07:54:17 51°11.192 2°37.493 -999 -999 -999 -999 -999
2008-06-09 07:54:22 51°11.181 2°37.471 -999 -999 -999 -999 -999
2008-06-09 07:54:27 51°11.17 2°37.45 -999 -999 -999 -999 -999
2008-06-09 07:54:32 51°11.16 2°37.428 -999 -999 -999 -999 -999
2008-06-09 07:54:37 51°11.149 2°37.406 -999 -999 -999 -999 -999
2008-06-09 07:54:42 51°11.139 2°37.384 -999 -999 -999 -999 -999
2008-06-09 07:54:47 51°11.128 2°37.363 -999 -999 -999 -999 -999
2008-06-09 07:54:52 51°11.117 2°37.341 -999 -999 -999 -999 -999
2008-06-09 07:54:57 51°11.107 2°37.319 -999 -999 -999 -999 -999
2008-06-09 07:55:02 51°11.096 2°37.298 -999 -999 -999 -999 -999
2008-06-09 07:55:07 51°11.085 2°37.276 -999 -999 -999 -999 -999
2008-06-09 07:55:12 51°11.075 2°37.255 -999 -999 -999 -999 -999
2008-06-09 07:55:17 51°11.064 2°37.233 -999 -999 -999 -999 -999
2008-06-09 07:55:22 51°11.054 2°37.211 -999 -999 -999 -999 -999
2008-06-09 07:55:27 51°11.043 2°37.19 -999 -999 -999 -999 -999
2008-06-09 07:55:32 51°11.033 2°37.167 -999 -999 -999 -999 -999
2008-06-09 07:55:37 51°11.023 2°37.145 -999 -999 -999 -999 -999
2008-06-09 07:55:42 51°11.012 2°37.123 -999 -999 -999 -999 -999
2008-06-09 07:55:47 51°11.002 2°37.1 -999 -999 -999 -999 -999
2008-06-09 07:55:52 51°10.992 2°37.078 -999 -999 -999 -999 -999
2008-06-09 07:55:57 51°10.982 2°37.055 -999 -999 -999 -999 -999
2008-06-09 07:56:02 51°10.972 2°37.033 -999 -999 -999 -999 -999
2008-06-09 07:56:07 51°10.962 2°37.01 -999 -999 -999 -999 -999
2008-06-09 07:56:12 51°10.952 2°36.988 -999 -999 -999 -999 -999
2008-06-09 07:56:17 51°10.942 2°36.966 -999 -999 -999 -999 -999
2008-06-09 07:56:22 51°10.931 2°36.944 -999 -999 -999 -999 -999
2008-06-09 07:56:27 51°10.921 2°36.921 -999 -999 -999 -999 -999
2008-06-09 07:56:32 51°10.911 2°36.899 -999 -999 -999 -999 -999
2008-06-09 07:56:37 51°10.901 2°36.877 -999 -999 -999 -999 -999
2008-06-09 07:56:42 51°10.89 2°36.855 -999 -999 -999 -999 -999
2008-06-09 07:56:47 51°10.879 2°36.834 -999 -999 -999 -999 -999
2008-06-09 07:56:52 51°10.869 2°36.812 -999 -999 -999 -999 -999
2008-06-09 07:56:57 51°10.858 2°36.79 -999 -999 -999 -999 -999
2008-06-09 07:57:02 51°10.848 2°36.768 -999 -999 -999 -999 -999
2008-06-09 07:57:07 51°10.837 2°36.746 -999 -999 -999 -999 -999
2008-06-09 07:57:12 51°10.827 2°36.724 -999 -999 -999 -999 -999
2008-06-09 07:57:17 51°10.817 2°36.702 -999 -999 -999 -999 -999
2008-06-09 07:57:22 51°10.806 2°36.681 -999 -999 -999 -999 -999
2008-06-09 07:57:27 51°10.795 2°36.66 -999 -999 -999 -999 -999
2008-06-09 07:57:32 51°10.784 2°36.639 -999 -999 -999 -999 -999
2008-06-09 07:57:37 51°10.772 2°36.619 -999 -999 -999 -999 -999
2008-06-09 07:57:42 51°10.76 2°36.599 -999 -999 -999 -999 -999
2008-06-09 07:57:47 51°10.748 2°36.58 -999 -999 -999 -999 -999
2008-06-09 07:57:52 51°10.736 2°36.561 -999 -999 -999 -999 -999